Find Raduga

NORAD ID: 12003 Int'l Des: 1980-081 Owner: GUKOSR Country: SU operational
MEOCIRCULAR

Aktuelle Ansicht

3D-Globus wird geladen...

Über Raduga

Beschreibung wird geladen...

Nächste Überflüge

Passes for default location (London). Set your location on the main map for personalized predictions.

Höhenverlauf

Loading altitude history...

Zweizeiliger Elementsatz

1 12003U 80081A 26150.13941833 -.00000234 00000-0 00000+0 0 9998
2 12003 5.9920 289.3850 0010867 318.4272 13.2761 1.00312417123125
Epoch: 30. Mai 2026 • Age: 13 hours

Aktueller Status

Höhe 35815.9 km
Geschwindigkeit 3.07 km/s
Subsatellitenpunkt 1.60°N, 36.68°W
Startdatum 5. Okt. 1980
Alter 45.6 years
Typ other

Technische Details

Klassifizierung Payload
Masse 1965.00 kg
Trockenmasse 1800.00 kg
Gesamtmasse 1965.00 kg
Länge 5.50 m
Durchmesser 2.50 m
Spannweite 9.50 m
Form Step Cyl + 2 Pan
Hersteller NPOPM
Bus-Typ Raduga
Phasenstatus In Orbit
Besitzer/Staat GUKOSR/SU

Most Searched